Time,TemperatureF,DewpointF,PressureIn,WindDirection,WindDirectionDegrees,WindSpeedMPH,WindSpeedGustMPH,Humidity,HourlyPrecipIn,Conditions,Clouds,dailyrainin,SoftwareType,DateUTC
2013-02-03 00:00:00,32.2,5.7,29.32,NW,305,0.0,3.1,32,0.00,,,0.04,VWS V13.01,2013-02-03 05:00:00,
2013-02-03 00:01:00,32.2,5.7,29.32,NW,305,0.0,0.0,32,0.00,,,0.00,VWS V13.01,2013-02-03 05:01:00,
2013-02-03 00:03:00,32.2,5.7,29.32,NW,305,0.0,0.0,32,0.00,,,0.00,VWS V13.01,2013-02-03 05:03:00,
2013-02-03 00:08:00,32.2,5.7,29.32,NW,305,2.2,2.7,32,0.00,,,0.00,VWS V13.01,2013-02-03 05:08:00,
2013-02-03 00:13:00,32.2,6.3,29.32,NW,305,2.2,2.2,33,0.00,,,0.00,VWS V13.01,2013-02-03 05:13:00,
2013-02-03 00:18:00,32.2,6.3,29.32,NW,305,0.0,0.0,33,0.00,,,0.00,VWS V13.01,2013-02-03 05:18:00,
2013-02-03 00:23:00,32.0,6.2,29.32,NW,305,0.0,0.0,33,0.00,,,0.00,VWS V13.01,2013-02-03 05:23:00,
2013-02-03 00:28:00,32.0,6.2,29.32,NW,305,0.0,2.7,33,0.00,,,0.00,VWS V13.01,2013-02-03 05:28:00,
2013-02-03 00:33:00,32.0,6.2,29.32,NW,305,0.0,0.0,33,0.00,,,0.00,VWS V13.01,2013-02-03 05:33:00,
2013-02-03 00:38:00,32.0,6.2,29.32,NW,305,0.0,2.7,33,0.00,,,0.00,VWS V13.01,2013-02-03 05:38:00,
2013-02-03 00:43:00,32.0,6.2,29.32,NW,305,0.0,0.0,33,0.00,,,0.00,VWS V13.01,2013-02-03 05:43:00,
2013-02-03 00:48:00,32.0,6.2,29.32,NW,305,0.0,2.2,33,0.00,,,0.00,VWS V13.01,2013-02-03 05:48:00,
2013-02-03 00:53:00,32.0,6.2,29.32,NNW,340,2.2,3.1,33,0.00,,,0.00,VWS V13.01,2013-02-03 05:53:00,
2013-02-03 00:58:00,32.0,6.2,29.32,NNW,340,2.7,2.7,33,0.00,,,0.00,VWS V13.01,2013-02-03 05:58:00,
2013-02-03 01:03:00,32.2,6.3,29.29,NNW,340,0.0,3.1,33,0.00,,,0.00,VWS V13.01,2013-02-03 06:03:00,
2013-02-03 01:08:00,32.2,6.3,29.29,NNW,340,0.0,0.0,33,0.00,,,0.00,VWS V13.01,2013-02-03 06:08:00,
2013-02-03 01:13:00,32.2,6.3,29.29,NNW,340,0.0,0.0,33,0.00,,,0.00,VWS V13.01,2013-02-03 06:13:00,
2013-02-03 01:18:00,32.0,6.2,29.29,NNW,340,0.0,0.0,33,0.00,,,0.00,VWS V13.01,2013-02-03 06:18:00,
2013-02-03 01:23:00,32.0,6.2,29.29,NNW,340,0.0,0.0,33,0.00,,,0.00,VWS V13.01,2013-02-03 06:23:00,
2013-02-03 01:28:00,32.2,6.3,29.29,NNW,340,0.0,0.0,33,0.00,,,0.00,VWS V13.01,2013-02-03 06:28:00,
2013-02-03 01:33:00,32.2,6.3,29.29,NNW,340,2.2,2.2,33,0.00,,,0.00,VWS V13.01,2013-02-03 06:33:00,
2013-02-03 01:38:00,32.2,6.3,29.29,NNW,340,0.0,0.0,33,0.00,,,0.00,VWS V13.01,2013-02-03 06:38:00,
2013-02-03 01:43:00,32.2,6.3,29.29,NNW,340,0.0,0.0,33,0.00,,,0.00,VWS V13.01,2013-02-03 06:43:00,
2013-02-03 01:48:00,32.2,6.3,29.29,NNW,340,0.0,0.0,33,0.00,,,0.00,VWS V13.01,2013-02-03 06:48:00,
2013-02-03 01:53:00,32.2,5.7,29.29,NNW,340,0.0,0.0,32,0.00,,,0.00,VWS V13.01,2013-02-03 06:53:00,
2013-02-03 01:58:00,32.2,5.7,29.29,NNW,340,0.0,0.0,32,0.00,,,0.00,VWS V13.01,2013-02-03 06:58:00,
2013-02-03 02:03:00,32.2,5.7,29.29,NNW,340,0.0,0.0,32,0.00,,,0.00,VWS V13.01,2013-02-03 07:03:00,
2013-02-03 02:08:00,32.2,5.7,29.29,NNW,340,3.1,3.1,32,0.00,,,0.00,VWS V13.01,2013-02-03 07:08:00,
2013-02-03 02:13:00,32.0,6.2,29.29,NNW,340,0.0,2.7,33,0.00,,,0.00,VWS V13.01,2013-02-03 07:13:00,
2013-02-03 02:18:00,32.0,6.2,29.29,NNW,340,2.2,2.2,33,0.00,,,0.00,VWS V13.01,2013-02-03 07:18:00,
2013-02-03 02:23:00,32.0,6.2,29.29,NNW,340,0.0,0.0,33,0.00,,,0.00,VWS V13.01,2013-02-03 07:23:00,
2013-02-03 02:28:00,32.2,5.7,29.29,NNW,340,0.0,2.7,32,0.00,,,0.00,VWS V13.01,2013-02-03 07:28:00,
2013-02-03 02:33:00,32.2,5.7,29.29,NNW,340,0.0,0.0,32,0.00,,,0.00,VWS V13.01,2013-02-03 07:33:00,
2013-02-03 02:38:00,32.0,5.5,29.29,NNW,340,0.0,0.0,32,0.00,,,0.00,VWS V13.01,2013-02-03 07:38:00,
2013-02-03 02:43:00,32.0,5.5,29.29,NNW,340,0.0,0.0,32,0.00,,,0.00,VWS V13.01,2013-02-03 07:43:00,
2013-02-03 02:48:00,31.8,6.0,29.26,NNW,340,0.0,0.0,33,0.00,,,0.00,VWS V13.01,2013-02-03 07:48:00,
2013-02-03 02:53:00,31.8,6.7,29.26,NNW,340,2.7,2.7,34,0.00,,,0.00,VWS V13.01,2013-02-03 07:53:00,
2013-02-03 02:58:00,31.8,6.7,29.26,NNW,340,2.2,2.2,34,0.00,,,0.00,VWS V13.01,2013-02-03 07:58:00,
2013-02-03 03:03:00,32.0,6.2,29.26,NNW,340,2.2,2.7,33,0.00,,,0.00,VWS V13.01,2013-02-03 08:03:00,
2013-02-03 03:09:00,32.2,6.3,29.26,NNW,340,0.0,2.7,33,0.00,,,0.00,VWS V13.01,2013-02-03 08:09:00,
2013-02-03 03:14:00,32.5,6.6,29.26,NNW,340,2.2,2.7,33,0.00,,,0.00,VWS V13.01,2013-02-03 08:14:00,
2013-02-03 03:19:00,32.5,6.6,29.26,NNW,340,2.7,2.7,33,0.00,,,0.00,VWS V13.01,2013-02-03 08:19:00,
2013-02-03 03:24:00,32.7,6.1,29.26,NNW,340,0.0,2.7,32,0.00,,,0.00,VWS V13.01,2013-02-03 08:24:00,
2013-02-03 03:29:00,32.7,6.1,29.26,NNW,331,2.2,4.0,32,0.00,,,0.00,VWS V13.01,2013-02-03 08:29:00,
2013-02-03 03:34:00,32.9,6.3,29.26,NNW,344,3.1,4.0,32,0.00,,,0.00,VWS V13.01,2013-02-03 08:34:00,
2013-02-03 03:39:00,33.1,6.4,29.26,North,353,3.6,5.8,32,0.00,,,0.00,VWS V13.01,2013-02-03 08:39:00,
2013-02-03 03:44:00,33.3,6.6,29.26,West,265,4.0,5.4,32,0.00,,,0.00,VWS V13.01,2013-02-03 08:44:00,
2013-02-03 03:49:00,33.3,6.6,29.26,NW,307,5.8,8.1,32,0.00,,,0.00,VWS V13.01,2013-02-03 08:49:00,
2013-02-03 03:54:00,33.3,6.6,29.26,NW,322,3.6,5.8,32,0.00,,,0.00,VWS V13.01,2013-02-03 08:54:00,
2013-02-03 03:59:00,33.3,7.3,29.26,NNW,334,5.8,5.8,33,0.00,,,0.00,VWS V13.01,2013-02-03 08:59:00,
2013-02-03 04:04:00,33.3,7.9,29.26,NNW,338,5.4,6.7,34,0.00,,,0.00,VWS V13.01,2013-02-03 09:04:00,
2013-02-03 04:09:00,33.3,7.9,29.26,North,350,4.9,6.3,34,0.00,,,0.00,VWS V13.01,2013-02-03 09:09:00,
2013-02-03 04:14:00,33.4,8.1,29.26,NNW,341,5.8,6.3,34,0.00,,,0.00,VWS V13.01,2013-02-03 09:14:00,
2013-02-03 04:19:00,33.4,8.1,29.23,NNW,334,5.8,7.6,34,0.00,,,0.00,VWS V13.01,2013-02-03 09:19:00,
2013-02-03 04:24:00,33.4,8.1,29.23,NNW,339,3.6,5.8,34,0.00,,,0.00,VWS V13.01,2013-02-03 09:24:00,
2013-02-03 04:29:00,33.4,8.1,29.23,NNW,342,5.4,6.3,34,0.00,,,0.00,VWS V13.01,2013-02-03 09:29:00,
2013-02-03 04:34:00,33.4,8.7,29.23,WNW,296,3.6,5.8,35,0.00,,,0.00,VWS V13.01,2013-02-03 09:34:00,
2013-02-03 04:39:00,33.4,9.4,29.23,NW,320,4.9,6.3,36,0.00,,,0.00,VWS V13.01,2013-02-03 09:39:00,
2013-02-03 04:44:00,33.4,9.4,29.23,NNW,330,6.3,8.1,36,0.00,,,0.00,VWS V13.01,2013-02-03 09:44:00,
2013-02-03 04:49:00,33.3,9.2,29.23,NW,321,4.0,6.7,36,0.00,,,0.00,VWS V13.01,2013-02-03 09:49:00,
2013-02-03 04:54:00,33.3,9.8,29.23,NNW,328,3.1,5.8,37,0.00,,,0.00,VWS V13.01,2013-02-03 09:54:00,
2013-02-03 04:59:00,33.3,9.8,29.23,NNW,332,4.0,6.3,37,0.00,,,0.00,VWS V13.01,2013-02-03 09:59:00,
2013-02-03 05:04:00,33.3,9.8,29.23,NW,322,5.4,5.8,37,0.00,,,0.00,VWS V13.01,2013-02-03 10:04:00,
2013-02-03 05:09:00,33.3,9.8,29.23,NW,311,3.6,6.3,37,0.00,,,0.00,VWS V13.01,2013-02-03 10:09:00,
2013-02-03 05:14:00,33.3,10.4,29.23,WNW,299,2.7,6.3,38,0.00,,,0.00,VWS V13.01,2013-02-03 10:14:00,
2013-02-03 05:19:00,33.3,10.4,29.23,NNW,332,4.9,7.6,38,0.00,,,0.00,VWS V13.01,2013-02-03 10:19:00,
2013-02-03 05:24:00,33.3,10.4,29.23,NW,326,5.4,6.3,38,0.00,,,0.00,VWS V13.01,2013-02-03 10:24:00,
2013-02-03 05:29:00,33.3,10.4,29.23,NNW,342,5.8,5.8,38,0.00,,,0.00,VWS V13.01,2013-02-03 10:29:00,
2013-02-03 05:34:00,33.3,10.4,29.23,WNW,299,5.4,8.3,38,0.00,,,0.00,VWS V13.01,2013-02-03 10:34:00,
2013-02-03 05:39:00,33.3,9.8,29.23,NW,307,6.3,8.1,37,0.00,,,0.00,VWS V13.01,2013-02-03 10:39:00,
2013-02-03 05:44:00,33.3,9.8,29.23,NW,323,3.6,5.8,37,0.00,,,0.00,VWS V13.01,2013-02-03 10:44:00,
2013-02-03 05:49:00,33.3,9.8,29.23,NNW,345,5.8,8.1,37,0.00,,,0.00,VWS V13.01,2013-02-03 10:49:00,
2013-02-03 05:54:00,33.3,9.8,29.23,NW,313,4.9,6.3,37,0.00,,,0.00,VWS V13.01,2013-02-03 10:54:00,
2013-02-03 05:59:00,33.1,9.7,29.23,North,349,5.4,6.3,37,0.00,,,0.00,VWS V13.01,2013-02-03 10:59:00,
2013-02-03 06:04:00,33.1,9.7,29.23,NNW,327,5.8,6.3,37,0.00,,,0.00,VWS V13.01,2013-02-03 11:04:00,
2013-02-03 06:09:00,33.1,9.7,29.23,NW,322,5.4,5.8,37,0.00,,,0.00,VWS V13.01,2013-02-03 11:09:00,
2013-02-03 06:14:00,33.1,9.7,29.23,NNW,331,4.0,5.4,37,0.00,,,0.00,VWS V13.01,2013-02-03 11:14:00,
2013-02-03 06:19:00,32.9,9.5,29.21,NNW,329,3.6,6.3,37,0.00,,,0.00,VWS V13.01,2013-02-03 11:19:00,
2013-02-03 06:24:00,32.9,9.5,29.21,NNW,327,3.6,6.3,37,0.00,,,0.00,VWS V13.01,2013-02-03 11:24:00,
2013-02-03 06:29:00,32.9,9.5,29.21,NW,318,5.4,6.3,37,0.00,,,0.00,VWS V13.01,2013-02-03 11:29:00,
2013-02-03 06:34:00,32.7,9.3,29.21,NW,325,5.8,5.8,37,0.00,,,0.00,VWS V13.01,2013-02-03 11:34:00,
2013-02-03 06:39:00,32.7,9.3,29.21,NW,322,4.0,6.3,37,0.00,,,0.00,VWS V13.01,2013-02-03 11:39:00,
2013-02-03 06:44:00,32.7,9.3,29.21,NW,325,2.7,6.3,37,0.00,,,0.00,VWS V13.01,2013-02-03 11:44:00,
2013-02-03 06:49:00,32.7,9.3,29.21,NNW,344,3.6,6.3,37,0.00,,,0.00,VWS V13.01,2013-02-03 11:49:00,
2013-02-03 06:54:00,32.7,9.3,29.21,NW,305,4.0,5.4,37,0.00,,,0.00,VWS V13.01,2013-02-03 11:54:00,
2013-02-03 06:59:00,32.7,9.3,29.21,West,281,3.1,5.4,37,0.00,,,0.00,VWS V13.01,2013-02-03 11:59:00,
2013-02-03 07:04:00,32.7,9.3,29.21,NW,305,6.3,6.3,37,0.00,,,0.00,VWS V13.01,2013-02-03 12:04:00,
2013-02-03 07:09:00,32.7,9.3,29.21,NW,326,4.0,4.9,37,0.00,,,0.00,VWS V13.01,2013-02-03 12:09:00,
2013-02-03 07:14:00,32.5,9.8,29.21,NNW,328,4.0,4.9,38,0.00,,,0.00,VWS V13.01,2013-02-03 12:14:00,
2013-02-03 07:19:00,32.5,9.8,29.21,WNW,301,3.6,5.4,38,0.00,,,0.00,VWS V13.01,2013-02-03 12:19:00,
2013-02-03 07:24:00,32.5,10.9,29.21,NW,322,5.4,7.6,40,0.00,,,0.00,VWS V13.01,2013-02-03 12:24:00,
2013-02-03 07:29:00,32.4,11.3,29.21,NW,321,4.0,6.3,41,0.00,,,0.00,VWS V13.01,2013-02-03 12:29:00,
2013-02-03 07:34:00,32.2,11.7,29.23,NW,304,5.4,7.6,42,0.00,,,0.00,VWS V13.01,2013-02-03 12:34:00,
2013-02-03 07:39:00,32.0,11.5,29.23,NW,304,4.9,7.6,42,0.00,,,0.00,VWS V13.01,2013-02-03 12:39:00,
2013-02-03 07:44:00,31.8,12.4,29.23,NNW,327,4.0,6.3,44,0.00,,,0.00,VWS V13.01,2013-02-03 12:44:00,
2013-02-03 07:49:00,31.6,12.8,29.23,WNW,297,4.0,8.7,45,0.00,,,0.00,VWS V13.01,2013-02-03 12:49:00,
2013-02-03 07:54:00,31.6,12.8,29.23,NW,317,3.6,5.4,45,0.00,,,0.00,VWS V13.01,2013-02-03 12:54:00,
2013-02-03 07:59:00,31.6,13.7,29.23,NW,308,3.6,7.6,47,0.00,,,0.00,VWS V13.01,2013-02-03 12:59:00,
2013-02-03 08:04:00,31.6,13.7,29.23,NW,306,3.1,6.3,47,0.00,,,0.00,VWS V13.01,2013-02-03 13:04:00,
2013-02-03 08:09:00,31.6,13.7,29.23,NW,322,4.9,5.8,47,0.00,,,0.00,VWS V13.01,2013-02-03 13:09:00,
2013-02-03 08:14:00,31.6,13.7,29.23,NW,307,5.4,5.8,47,0.00,,,0.00,VWS V13.01,2013-02-03 13:14:00,
2013-02-03 08:19:00,31.6,13.2,29.23,NNW,345,4.9,5.4,46,0.00,,,0.00,VWS V13.01,2013-02-03 13:19:00,
2013-02-03 08:24:00,31.6,13.2,29.23,WNW,301,4.0,6.3,46,0.00,,,0.00,VWS V13.01,2013-02-03 13:24:00,
2013-02-03 08:29:00,31.6,13.2,29.23,NNW,327,5.4,7.6,46,0.00,,,0.00,VWS V13.01,2013-02-03 13:29:00,
2013-02-03 08:34:00,31.6,13.2,29.23,NNW,333,4.0,8.1,46,0.00,,,0.00,VWS V13.01,2013-02-03 13:34:00,
2013-02-03 08:39:00,31.6,13.2,29.23,NW,307,2.7,5.8,46,0.00,,,0.00,VWS V13.01,2013-02-03 13:39:00,
2013-02-03 08:45:00,31.6,13.2,29.23,NW,308,4.9,5.4,46,0.00,,,0.00,VWS V13.01,2013-02-03 13:45:00,
2013-02-03 08:50:00,31.6,13.2,29.23,WNW,303,3.1,5.8,46,0.00,,,0.00,VWS V13.01,2013-02-03 13:50:00,
2013-02-03 08:55:00,31.6,13.2,29.23,NW,311,4.0,5.8,46,0.00,,,0.00,VWS V13.01,2013-02-03 13:55:00,
2013-02-03 09:00:00,31.6,13.7,29.23,WNW,299,6.3,6.3,47,0.00,,,0.00,VWS V13.01,2013-02-03 14:00:00,
2013-02-03 09:05:00,31.6,13.7,29.23,NW,311,5.4,10.1,47,0.00,,,0.00,VWS V13.01,2013-02-03 14:05:00,
2013-02-03 09:10:00,31.6,13.7,29.23,WNW,292,4.0,5.8,47,0.00,,,0.00,VWS V13.01,2013-02-03 14:10:00,
2013-02-03 09:15:00,31.6,13.7,29.23,NW,315,4.0,6.3,47,0.00,,,0.00,VWS V13.01,2013-02-03 14:15:00,
2013-02-03 09:20:00,31.6,13.7,29.23,NW,308,6.3,8.1,47,0.00,,,0.00,VWS V13.01,2013-02-03 14:20:00,
2013-02-03 09:25:00,31.6,14.2,29.23,NW,304,8.3,8.3,48,0.00,,,0.00,VWS V13.01,2013-02-03 14:25:00,
2013-02-03 09:30:00,31.6,14.2,29.23,NW,310,6.3,8.1,48,0.00,,,0.00,VWS V13.01,2013-02-03 14:30:00,
2013-02-03 09:35:00,31.6,14.2,29.23,NW,317,5.4,8.7,48,0.00,,,0.00,VWS V13.01,2013-02-03 14:35:00,
2013-02-03 09:40:00,31.6,14.2,29.23,NW,316,6.3,7.6,48,0.00,,,0.00,VWS V13.01,2013-02-03 14:40:00,
2013-02-03 09:45:00,31.6,13.7,29.23,NW,307,6.3,8.3,47,0.00,,,0.00,VWS V13.01,2013-02-03 14:45:00,
2013-02-03 09:50:00,31.6,13.7,29.23,NW,312,5.4,8.7,47,0.00,,,0.00,VWS V13.01,2013-02-03 14:50:00,
2013-02-03 09:55:00,31.8,13.9,29.23,NW,308,4.0,8.1,47,0.00,,,0.00,VWS V13.01,2013-02-03 14:55:00,
2013-02-03 10:00:00,31.8,13.9,29.23,WNW,291,5.8,6.3,47,0.00,,,0.00,VWS V13.01,2013-02-03 15:00:00,
2013-02-03 10:05:00,31.8,13.9,29.23,NW,317,3.6,5.4,47,0.00,,,0.00,VWS V13.01,2013-02-03 15:05:00,
2013-02-03 10:10:00,31.8,13.9,29.23,NW,308,3.6,7.6,47,0.00,,,0.00,VWS V13.01,2013-02-03 15:10:00,
2013-02-03 10:15:00,31.8,13.9,29.23,NW,317,6.3,6.3,47,0.00,,,0.00,VWS V13.01,2013-02-03 15:15:00,
2013-02-03 10:20:00,32.0,14.1,29.23,NW,310,4.0,5.8,47,0.00,,,0.00,VWS V13.01,2013-02-03 15:20:00,
2013-02-03 10:25:00,32.0,13.6,29.23,WNW,299,3.6,7.6,46,0.00,,,0.00,VWS V13.01,2013-02-03 15:25:00,
2013-02-03 10:30:00,32.0,13.6,29.23,NW,309,6.3,6.3,46,0.00,,,0.00,VWS V13.01,2013-02-03 15:30:00,
2013-02-03 10:35:00,32.2,13.7,29.23,WNW,285,4.0,8.3,46,0.00,,,0.00,VWS V13.01,2013-02-03 15:35:00,
2013-02-03 10:40:00,32.2,12.2,29.23,NW,314,4.0,10.5,43,0.00,,,0.00,VWS V13.01,2013-02-03 15:40:00,
2013-02-03 10:45:00,32.2,11.1,29.23,NW,306,6.3,8.7,41,0.00,,,0.00,VWS V13.01,2013-02-03 15:45:00,
2013-02-03 10:50:00,32.2,11.1,29.23,NW,310,8.3,8.3,41,0.00,,,0.00,VWS V13.01,2013-02-03 15:50:00,
2013-02-03 10:55:00,32.4,11.3,29.23,NNW,334,3.6,6.3,41,0.00,,,0.00,VWS V13.01,2013-02-03 15:55:00,
2013-02-03 11:00:00,32.4,11.3,29.23,NW,321,7.6,8.3,41,0.00,,,0.00,VWS V13.01,2013-02-03 16:00:00,
2013-02-03 11:05:00,32.4,11.3,29.23,WNW,299,7.6,8.3,41,0.00,,,0.00,VWS V13.01,2013-02-03 16:05:00,
2013-02-03 11:10:00,32.2,10.6,29.23,WNW,287,8.7,12.3,40,0.00,,,0.00,VWS V13.01,2013-02-03 16:10:00,
2013-02-03 11:15:00,32.2,10.6,29.23,NNW,344,8.1,10.5,40,0.00,,,0.00,VWS V13.01,2013-02-03 16:15:00,
2013-02-03 11:20:00,32.2,11.1,29.23,NW,318,8.3,9.2,41,0.00,,,0.00,VWS V13.01,2013-02-03 16:20:00,
2013-02-03 11:25:00,32.2,11.1,29.23,NW,321,5.4,8.3,41,0.00,,,0.00,VWS V13.01,2013-02-03 16:25:00,
2013-02-03 11:30:00,32.2,11.1,29.23,NW,318,5.8,8.7,41,0.00,,,0.00,VWS V13.01,2013-02-03 16:30:00,
2013-02-03 11:35:00,32.4,11.3,29.23,NW,305,6.7,8.1,41,0.00,,,0.00,VWS V13.01,2013-02-03 16:35:00,
2013-02-03 11:40:00,32.5,11.5,29.23,WNW,297,8.1,11.4,41,0.00,,,0.00,VWS V13.01,2013-02-03 16:40:00,
2013-02-03 11:45:00,32.7,11.6,29.23,NW,308,8.1,8.1,41,0.00,,,0.00,VWS V13.01,2013-02-03 16:45:00,
2013-02-03 11:50:00,32.7,11.6,29.23,West,274,5.4,8.7,41,0.00,,,0.00,VWS V13.01,2013-02-03 16:50:00,
2013-02-03 11:55:00,32.7,11.1,29.23,NW,304,13.2,13.2,40,0.00,,,0.00,VWS V13.01,2013-02-03 16:55:00,
2013-02-03 12:00:00,32.7,11.1,29.23,WNW,293,4.0,10.5,40,0.00,,,0.00,VWS V13.01,2013-02-03 17:00:00,
2013-02-03 12:05:00,32.9,11.2,29.23,NW,304,6.3,6.3,40,0.00,,,0.00,VWS V13.01,2013-02-03 17:05:00,
2013-02-03 12:10:00,32.9,10.1,29.23,West,278,7.6,8.7,38,0.00,,,0.00,VWS V13.01,2013-02-03 17:10:00,
2013-02-03 12:15:00,32.9,10.7,29.23,NW,319,8.3,8.3,39,0.00,,,0.00,VWS V13.01,2013-02-03 17:15:00,
2013-02-03 12:20:00,32.9,10.7,29.23,WNW,283,5.8,8.7,39,0.00,,,0.00,VWS V13.01,2013-02-03 17:20:00,
2013-02-03 12:25:00,32.9,9.5,29.23,WNW,296,4.9,12.3,37,0.00,,,0.00,VWS V13.01,2013-02-03 17:25:00,
2013-02-03 12:30:00,32.9,10.1,29.23,NNW,331,7.2,8.7,38,0.00,,,0.00,VWS V13.01,2013-02-03 17:30:00,
2013-02-03 12:35:00,32.9,10.1,29.23,WNW,294,5.8,8.3,38,0.00,,,0.00,VWS V13.01,2013-02-03 17:35:00,
2013-02-03 12:40:00,32.9,8.3,29.23,NW,308,10.5,12.8,35,0.00,,,0.00,VWS V13.01,2013-02-03 17:40:00,
2013-02-03 12:45:00,32.9,7.6,29.23,WNW,289,8.3,14.5,34,0.00,,,0.00,VWS V13.01,2013-02-03 17:45:00,
2013-02-03 12:50:00,32.9,7.6,29.26,NW,316,11.0,12.8,34,0.00,,,0.00,VWS V13.01,2013-02-03 17:50:00,
2013-02-03 12:55:00,32.9,7.6,29.26,NNW,331,8.7,12.8,34,0.00,,,0.00,VWS V13.01,2013-02-03 17:55:00,
2013-02-03 13:00:00,32.9,7.6,29.26,NW,304,10.1,15.9,34,0.00,,,0.00,VWS V13.01,2013-02-03 18:00:00,
2013-02-03 13:05:00,32.9,6.3,29.26,WNW,288,11.0,17.0,32,0.00,,,0.00,VWS V13.01,2013-02-03 18:05:00,
2013-02-03 13:10:00,32.9,6.3,29.26,NW,305,7.6,12.3,32,0.00,,,0.00,VWS V13.01,2013-02-03 18:10:00,
2013-02-03 13:15:00,32.9,6.3,29.26,NW,316,6.3,11.0,32,0.00,,,0.00,VWS V13.01,2013-02-03 18:15:00,
2013-02-03 13:20:00,32.7,5.4,29.26,WNW,286,7.2,15.0,31,0.00,,,0.00,VWS V13.01,2013-02-03 18:20:00,
2013-02-03 13:25:00,32.7,6.1,29.26,NW,324,8.3,12.8,32,0.00,,,0.00,VWS V13.01,2013-02-03 18:25:00,
2013-02-03 13:30:00,32.7,5.4,29.26,WNW,289,8.3,16.8,31,0.00,,,0.00,VWS V13.01,2013-02-03 18:30:00,
2013-02-03 13:35:00,32.7,6.1,29.26,NW,314,10.1,12.8,32,0.00,,,0.00,VWS V13.01,2013-02-03 18:35:00,
2013-02-03 13:40:00,32.5,5.3,29.26,WNW,292,8.3,13.6,31,0.00,,,0.00,VWS V13.01,2013-02-03 18:40:00,
2013-02-03 13:45:00,32.5,6.0,29.26,NW,310,7.6,12.8,32,0.00,,,0.00,VWS V13.01,2013-02-03 18:45:00,
2013-02-03 13:50:00,32.4,5.1,29.26,NW,304,12.3,17.4,31,0.00,,,0.00,VWS V13.01,2013-02-03 18:50:00,
2013-02-03 13:55:00,32.4,5.8,29.26,NW,321,8.1,16.3,32,0.00,,,0.00,VWS V13.01,2013-02-03 18:55:00,
2013-02-03 14:00:00,32.4,5.8,29.26,NW,316,10.1,10.1,32,0.00,,,0.00,VWS V13.01,2013-02-03 19:00:00,
2013-02-03 14:05:00,32.4,5.8,29.26,NW,325,8.7,10.5,32,0.00,,,0.00,VWS V13.01,2013-02-03 19:05:00,
2013-02-03 14:10:00,32.4,5.8,29.26,NW,313,5.4,10.5,32,0.00,,,0.00,VWS V13.01,2013-02-03 19:10:00,
2013-02-03 14:15:00,32.4,5.8,29.26,WNW,302,6.3,13.6,32,0.00,,,0.00,VWS V13.01,2013-02-03 19:15:00,
2013-02-03 14:20:00,32.4,5.8,29.26,NW,309,11.4,12.3,32,0.00,,,0.00,VWS V13.01,2013-02-03 19:20:00,
2013-02-03 14:25:00,32.4,5.1,29.26,WNW,291,8.3,15.0,31,0.00,,,0.00,VWS V13.01,2013-02-03 19:25:00,
2013-02-03 14:30:00,32.5,5.3,29.26,West,279,8.1,11.0,31,0.00,,,0.00,VWS V13.01,2013-02-03 19:30:00,
2013-02-03 14:35:00,32.5,5.3,29.26,WNW,283,8.1,8.7,31,0.00,,,0.00,VWS V13.01,2013-02-03 19:35:00,
2013-02-03 14:40:00,32.5,5.3,29.26,WNW,289,5.4,12.8,31,0.00,,,0.00,VWS V13.01,2013-02-03 19:40:00,
2013-02-03 14:45:00,32.7,5.4,29.26,NW,305,6.3,11.0,31,0.00,,,0.00,VWS V13.01,2013-02-03 19:45:00,
2013-02-03 14:50:00,32.7,5.4,29.29,WNW,301,5.8,11.4,31,0.00,,,0.00,VWS V13.01,2013-02-03 19:50:00,
2013-02-03 14:55:00,32.7,5.4,29.29,NW,314,10.5,13.2,31,0.00,,,0.00,VWS V13.01,2013-02-03 19:55:00,
2013-02-03 15:00:00,32.7,5.4,29.29,West,280,5.4,10.1,31,0.00,,,0.00,VWS V13.01,2013-02-03 20:00:00,
2013-02-03 15:05:00,32.7,5.4,29.29,WNW,289,11.0,12.8,31,0.00,,,0.00,VWS V13.01,2013-02-03 20:05:00,
2013-02-03 15:10:00,32.7,5.4,29.29,WNW,286,5.8,8.7,31,0.00,,,0.00,VWS V13.01,2013-02-03 20:10:00,
2013-02-03 15:15:00,32.7,5.4,29.29,WNW,299,8.1,11.0,31,0.00,,,0.00,VWS V13.01,2013-02-03 20:15:00,
2013-02-03 15:20:00,32.9,5.6,29.29,WNW,298,5.8,10.1,31,0.00,,,0.00,VWS V13.01,2013-02-03 20:20:00,
2013-02-03 15:25:00,32.9,5.6,29.29,NW,313,5.8,10.1,31,0.00,,,0.00,VWS V13.01,2013-02-03 20:25:00,
2013-02-03 15:30:00,32.9,5.6,29.29,NW,308,8.3,10.1,31,0.00,,,0.00,VWS V13.01,2013-02-03 20:30:00,
2013-02-03 15:35:00,32.9,4.9,29.29,WNW,292,6.7,13.2,30,0.00,,,0.00,VWS V13.01,2013-02-03 20:35:00,
2013-02-03 15:40:00,32.9,4.9,29.29,NW,310,9.2,14.1,30,0.00,,,0.00,VWS V13.01,2013-02-03 20:40:00,
2013-02-03 15:45:00,32.7,4.7,29.29,WNW,288,4.9,15.9,30,0.00,,,0.00,VWS V13.01,2013-02-03 20:45:00,
2013-02-03 15:50:00,32.7,4.7,29.29,West,281,6.3,11.0,30,0.00,,,0.00,VWS V13.01,2013-02-03 20:50:00,
2013-02-03 15:55:00,32.7,5.4,29.29,NW,314,8.1,10.5,31,0.00,,,0.00,VWS V13.01,2013-02-03 20:55:00,
2013-02-03 16:00:00,32.5,5.3,29.29,WNW,288,7.6,11.0,31,0.00,,,0.00,VWS V13.01,2013-02-03 21:00:00,
2013-02-03 16:05:00,32.5,6.0,29.32,NW,313,5.4,10.5,32,0.00,,,0.00,VWS V13.01,2013-02-03 21:05:00,
2013-02-03 16:10:00,32.5,6.0,29.32,WNW,298,5.4,10.5,32,0.00,,,0.00,VWS V13.01,2013-02-03 21:10:00,
2013-02-03 16:15:00,32.4,6.5,29.32,NW,306,6.3,10.1,33,0.00,,,0.00,VWS V13.01,2013-02-03 21:15:00,
2013-02-03 16:20:00,32.4,5.8,29.32,WNW,284,5.8,13.2,32,0.00,,,0.00,VWS V13.01,2013-02-03 21:20:00,
2013-02-03 16:25:00,32.4,6.5,29.32,WNW,291,8.7,13.2,33,0.00,,,0.00,VWS V13.01,2013-02-03 21:25:00,
2013-02-03 16:30:00,32.4,6.5,29.32,NW,319,5.8,14.1,33,0.00,,,0.00,VWS V13.01,2013-02-03 21:30:00,
2013-02-03 16:35:00,32.2,7.0,29.32,WNW,299,12.3,12.3,34,0.00,,,0.00,VWS V13.01,2013-02-03 21:35:00,
2013-02-03 16:40:00,32.0,7.5,29.32,NNW,329,8.1,13.2,35,0.00,,,0.00,VWS V13.01,2013-02-03 21:40:00,
2013-02-03 16:45:00,32.0,8.1,29.32,NW,315,8.3,12.8,36,0.00,,,0.00,VWS V13.01,2013-02-03 21:45:00,
2013-02-03 16:50:00,32.0,8.1,29.32,NNW,330,5.8,12.3,36,0.00,,,0.00,VWS V13.01,2013-02-03 21:50:00,
2013-02-03 16:55:00,31.8,8.5,29.32,NW,316,8.3,12.8,37,0.00,,,0.00,VWS V13.01,2013-02-03 21:55:00,
2013-02-03 17:00:00,31.8,8.5,29.32,NW,310,11.0,12.8,37,0.00,,,0.00,VWS V13.01,2013-02-03 22:00:00,
2013-02-03 17:05:00,31.8,7.9,29.32,West,280,8.7,15.9,36,0.00,,,0.00,VWS V13.01,2013-02-03 22:05:00,
2013-02-03 17:10:00,31.8,7.3,29.32,NW,311,7.2,15.4,35,0.00,,,0.00,VWS V13.01,2013-02-03 22:10:00,
2013-02-03 17:15:00,31.8,7.3,29.32,NNW,327,10.5,12.8,35,0.00,,,0.00,VWS V13.01,2013-02-03 22:15:00,
2013-02-03 17:20:00,31.8,5.3,29.32,NW,306,6.3,17.0,32,0.00,,,0.00,VWS V13.01,2013-02-03 22:20:00,
2013-02-03 17:25:00,31.8,4.6,29.32,NW,315,8.3,15.4,31,0.00,,,0.00,VWS V13.01,2013-02-03 22:25:00,
2013-02-03 17:30:00,31.8,4.6,29.32,NNW,344,13.2,23.7,31,0.00,,,0.00,VWS V13.01,2013-02-03 22:30:00,
2013-02-03 17:35:00,31.8,4.6,29.35,NW,311,10.5,15.4,31,0.00,,,0.00,VWS V13.01,2013-02-03 22:35:00,
2013-02-03 17:40:00,31.6,4.5,29.35,WNW,288,8.3,12.8,31,0.00,,,0.00,VWS V13.01,2013-02-03 22:40:00,
2013-02-03 17:45:00,31.5,3.6,29.35,WNW,291,12.8,17.0,30,0.00,,,0.00,VWS V13.01,2013-02-03 22:45:00,
2013-02-03 17:50:00,31.5,4.3,29.35,NW,314,8.3,15.0,31,0.00,,,0.00,VWS V13.01,2013-02-03 22:50:00,
2013-02-03 17:55:00,31.3,4.2,29.35,NW,306,12.8,12.8,31,0.00,,,0.00,VWS V13.01,2013-02-03 22:55:00,
2013-02-03 18:00:00,31.1,4.0,29.35,WNW,290,8.7,14.5,31,0.00,,,0.00,VWS V13.01,2013-02-03 23:00:00,
2013-02-03 18:05:00,31.1,4.0,29.35,WNW,290,7.6,12.8,31,0.00,,,0.00,VWS V13.01,2013-02-03 23:05:00,
2013-02-03 18:10:00,30.9,3.8,29.35,West,276,10.5,12.8,31,0.00,,,0.00,VWS V13.01,2013-02-03 23:10:00,
2013-02-03 18:15:00,30.7,3.7,29.35,WNW,285,8.3,17.0,31,0.00,,,0.00,VWS V13.01,2013-02-03 23:15:00,
2013-02-03 18:20:00,30.7,3.7,29.35,WNW,294,5.8,13.2,31,0.00,,,0.00,VWS V13.01,2013-02-03 23:20:00,
2013-02-03 18:25:00,30.6,4.2,29.35,WNW,295,5.8,10.5,32,0.00,,,0.00,VWS V13.01,2013-02-03 23:25:00,
2013-02-03 18:30:00,30.4,4.1,29.35,WNW,298,4.0,9.6,32,0.00,,,0.00,VWS V13.01,2013-02-03 23:30:00,
2013-02-03 18:35:00,30.4,4.1,29.38,NW,320,6.3,8.1,32,0.00,,,0.00,VWS V13.01,2013-02-03 23:35:00,
2013-02-03 18:40:00,30.4,4.7,29.38,WNW,298,5.8,6.3,33,0.00,,,0.00,VWS V13.01,2013-02-03 23:40:00,
2013-02-03 18:45:00,30.4,4.1,29.38,WNW,284,8.3,8.3,32,0.00,,,0.00,VWS V13.01,2013-02-03 23:45:00,
2013-02-03 18:50:00,30.2,3.9,29.38,WNW,298,6.3,8.7,32,0.00,,,0.00,VWS V13.01,2013-02-03 23:50:00,
2013-02-03 18:55:00,30.2,3.9,29.38,WNW,299,7.2,10.1,32,0.00,,,0.00,VWS V13.01,2013-02-03 23:55:00,
2013-02-03 19:00:00,30.2,4.6,29.38,WNW,294,5.4,7.6,33,0.00,,,0.00,VWS V13.01,2013-02-04 00:00:00,
2013-02-03 19:05:00,30.0,4.4,29.38,WNW,294,5.8,8.7,33,0.00,,,0.00,VWS V13.01,2013-02-04 00:05:00,
2013-02-03 19:10:00,30.0,5.1,29.38,NW,304,10.1,10.1,34,0.00,,,0.00,VWS V13.01,2013-02-04 00:10:00,
2013-02-03 19:15:00,29.8,4.9,29.38,West,278,5.4,8.3,34,0.00,,,0.00,VWS V13.01,2013-02-04 00:15:00,
2013-02-03 19:20:00,29.8,5.5,29.38,NW,317,4.0,6.3,35,0.00,,,0.00,VWS V13.01,2013-02-04 00:20:00,
2013-02-03 19:25:00,29.8,5.5,29.38,WNW,292,5.4,6.3,35,0.00,,,0.00,VWS V13.01,2013-02-04 00:25:00,
2013-02-03 19:30:00,29.8,5.5,29.38,WNW,283,5.4,7.6,35,0.00,,,0.00,VWS V13.01,2013-02-04 00:30:00,
2013-02-03 19:35:00,29.8,5.5,29.38,NW,316,3.6,5.8,35,0.00,,,0.00,VWS V13.01,2013-02-04 00:35:00,
2013-02-03 19:40:00,29.8,5.5,29.38,WNW,296,4.9,6.7,35,0.00,,,0.00,VWS V13.01,2013-02-04 00:40:00,
2013-02-03 19:45:00,29.8,5.5,29.38,WNW,299,3.6,4.0,35,0.00,,,0.00,VWS V13.01,2013-02-04 00:45:00,
2013-02-03 19:50:00,29.8,5.5,29.41,WNW,297,5.8,6.3,35,0.00,,,0.00,VWS V13.01,2013-02-04 00:50:00,
2013-02-03 19:55:00,29.8,5.5,29.41,NW,305,5.8,7.6,35,0.00,,,0.00,VWS V13.01,2013-02-04 00:55:00,
2013-02-03 20:00:00,29.8,5.5,29.41,NW,306,4.9,6.3,35,0.00,,,0.00,VWS V13.01,2013-02-04 01:00:00,
2013-02-03 20:05:00,29.8,5.5,29.41,WNW,297,6.3,6.3,35,0.00,,,0.00,VWS V13.01,2013-02-04 01:05:00,
2013-02-03 20:10:00,29.8,5.5,29.41,NW,306,3.6,6.3,35,0.00,,,0.00,VWS V13.01,2013-02-04 01:10:00,
2013-02-03 20:15:00,29.8,5.5,29.41,WNW,298,4.0,4.0,35,0.00,,,0.00,VWS V13.01,2013-02-04 01:15:00,
2013-02-03 20:20:00,29.8,5.5,29.41,WNW,295,3.1,3.1,35,0.00,,,0.00,VWS V13.01,2013-02-04 01:20:00,
2013-02-03 20:25:00,29.8,5.5,29.41,WNW,286,3.6,6.3,35,0.00,,,0.00,VWS V13.01,2013-02-04 01:25:00,
2013-02-03 20:30:00,29.8,5.5,29.41,WNW,294,4.9,5.4,35,0.00,,,0.00,VWS V13.01,2013-02-04 01:30:00,
2013-02-03 20:35:00,29.8,4.9,29.41,WNW,302,5.8,6.3,34,0.00,,,0.00,VWS V13.01,2013-02-04 01:35:00,
2013-02-03 20:40:00,29.8,4.9,29.41,WNW,299,3.1,5.8,34,0.00,,,0.00,VWS V13.01,2013-02-04 01:40:00,
2013-02-03 20:45:00,29.8,4.9,29.41,WNW,295,5.4,6.3,34,0.00,,,0.00,VWS V13.01,2013-02-04 01:45:00,
2013-02-03 20:50:00,29.8,4.9,29.41,WNW,301,3.1,5.4,34,0.00,,,0.00,VWS V13.01,2013-02-04 01:50:00,
2013-02-03 20:55:00,29.8,4.9,29.41,NW,307,4.0,6.3,34,0.00,,,0.00,VWS V13.01,2013-02-04 01:55:00,
2013-02-03 21:00:00,29.8,4.9,29.41,WNW,289,3.1,4.9,34,0.00,,,0.00,VWS V13.01,2013-02-04 02:00:00,
2013-02-03 21:05:00,29.8,4.9,29.41,WNW,299,3.1,4.5,34,0.00,,,0.00,VWS V13.01,2013-02-04 02:05:00,
2013-02-03 21:10:00,29.8,4.9,29.41,WNW,302,4.0,4.9,34,0.00,,,0.00,VWS V13.01,2013-02-04 02:10:00,
2013-02-03 21:15:00,29.8,4.9,29.41,NW,306,3.6,4.0,34,0.00,,,0.00,VWS V13.01,2013-02-04 02:15:00,
2013-02-03 21:20:00,29.8,4.9,29.41,WNW,299,2.7,4.9,34,0.00,,,0.00,VWS V13.01,2013-02-04 02:20:00,
2013-02-03 21:25:00,29.8,4.9,29.41,WNW,297,3.1,4.0,34,0.00,,,0.00,VWS V13.01,2013-02-04 02:25:00,
2013-02-03 21:30:00,29.8,4.9,29.41,WNW,300,3.1,3.6,34,0.00,,,0.00,VWS V13.01,2013-02-04 02:30:00,
2013-02-03 21:35:00,29.7,4.7,29.41,NW,314,3.6,4.0,34,0.00,,,0.00,VWS V13.01,2013-02-04 02:35:00,
2013-02-03 21:40:00,29.7,4.7,29.41,NW,313,4.0,4.0,34,0.00,,,0.00,VWS V13.01,2013-02-04 02:40:00,
2013-02-03 21:45:00,29.8,4.9,29.41,NW,310,3.1,4.9,34,0.00,,,0.00,VWS V13.01,2013-02-04 02:45:00,
2013-02-03 21:50:00,29.8,4.9,29.41,West,273,2.2,3.6,34,0.00,,,0.00,VWS V13.01,2013-02-04 02:50:00,
2013-02-03 21:55:00,29.8,4.9,29.41,WNW,299,2.7,3.1,34,0.00,,,0.00,VWS V13.01,2013-02-04 02:55:00,
2013-02-03 22:00:00,29.8,4.9,29.41,WNW,299,2.2,4.0,34,0.00,,,0.00,VWS V13.01,2013-02-04 03:00:00,
2013-02-03 22:05:00,29.8,4.9,29.41,NW,304,2.7,4.0,34,0.00,,,0.00,VWS V13.01,2013-02-04 03:05:00,
2013-02-03 22:10:00,29.8,4.9,29.41,NW,304,0.0,2.7,34,0.00,,,0.00,VWS V13.01,2013-02-04 03:10:00,
2013-02-03 22:15:00,29.7,4.7,29.41,WNW,284,2.7,3.6,34,0.00,,,0.00,VWS V13.01,2013-02-04 03:15:00,
2013-02-03 22:20:00,29.7,4.7,29.41,NW,310,4.0,4.0,34,0.00,,,0.00,VWS V13.01,2013-02-04 03:20:00,
2013-02-03 22:25:00,29.7,4.7,29.41,NW,310,2.7,4.0,34,0.00,,,0.00,VWS V13.01,2013-02-04 03:25:00,
2013-02-03 22:30:00,29.7,4.7,29.41,NW,310,2.7,2.7,34,0.00,,,0.00,VWS V13.01,2013-02-04 03:30:00,
2013-02-03 22:35:00,29.7,4.7,29.41,NW,310,2.7,3.1,34,0.00,,,0.00,VWS V13.01,2013-02-04 03:35:00,
2013-02-03 22:40:00,29.5,4.6,29.41,NW,310,0.0,2.7,34,0.00,,,0.00,VWS V13.01,2013-02-04 03:40:00,
2013-02-03 22:45:00,29.5,4.6,29.41,NW,310,0.0,0.0,34,0.00,,,0.00,VWS V13.01,2013-02-04 03:45:00,
2013-02-03 22:50:00,29.5,4.6,29.41,NW,310,0.0,2.2,34,0.00,,,0.00,VWS V13.01,2013-02-04 03:50:00,
2013-02-03 22:55:00,29.5,5.2,29.41,NW,310,0.0,0.0,35,0.00,,,0.00,VWS V13.01,2013-02-04 03:55:00,
2013-02-03 23:00:00,29.5,5.2,29.41,NW,310,0.0,0.0,35,0.00,,,0.00,VWS V13.01,2013-02-04 04:00:00,
2013-02-03 23:05:00,29.3,5.1,29.41,NW,310,0.0,0.0,35,0.00,,,0.00,VWS V13.01,2013-02-04 04:05:00,
2013-02-03 23:10:00,29.3,5.1,29.41,NW,310,0.0,0.0,35,0.00,,,0.00,VWS V13.01,2013-02-04 04:10:00,
2013-02-03 23:15:00,29.3,5.1,29.41,NW,310,0.0,0.0,35,0.00,,,0.00,VWS V13.01,2013-02-04 04:15:00,
2013-02-03 23:20:00,29.3,5.1,29.41,NW,310,0.0,0.0,35,0.00,,,0.00,VWS V13.01,2013-02-04 04:20:00,
2013-02-03 23:25:00,29.3,5.1,29.41,NW,310,0.0,0.0,35,0.00,,,0.00,VWS V13.01,2013-02-04 04:25:00,
2013-02-03 23:30:00,29.1,4.9,29.41,NW,310,0.0,0.0,35,0.00,,,0.00,VWS V13.01,2013-02-04 04:30:00,
2013-02-03 23:35:00,28.9,5.3,29.41,NW,310,0.0,0.0,36,0.00,,,0.00,VWS V13.01,2013-02-04 04:35:00,
2013-02-03 23:40:00,28.9,5.3,29.41,NW,310,0.0,0.0,36,0.00,,,0.00,VWS V13.01,2013-02-04 04:40:00,
2013-02-03 23:45:00,29.1,5.5,29.41,NW,310,0.0,0.0,36,0.00,,,0.00,VWS V13.01,2013-02-04 04:45:00,
2013-02-03 23:50:00,28.9,5.3,29.41,NW,310,0.0,0.0,36,0.00,,,0.00,VWS V13.01,2013-02-04 04:50:00,
2013-02-03 23:55:00,28.8,4.6,29.41,NW,310,0.0,0.0,35,0.00,,,0.00,VWS V13.01,2013-02-04 04:55:00,